[[{"header":{"parameterUnit":"m.s-1","parameterCategory":1,"la1":30.2991,"la2":30.254,"lo1":-89.0895,"lo2":-89.0444,"dy":0.0017,"dx":0.0017,"nx":28,"ny":28,"refTime":"2025-09-05T21:00:00:Z","depth":0,"parameterNumber":2,"parameterNumberName":"U-component_of_WINDS"},"data":[0,0,0,0,0,0,0,0,0,0,0,0,0,0,0,0,0,0,0,0,0,0,0,0,0,0,0,0,0,0,0,0,0,0,0,0,0,0,0,0,0,0,0,0,0,0,0,0,0,0,0,0,0,0,0,0,0,0,-1.5192,-1.5192,0,-1.515,-1.5149,-1.5149,-1.5114,-1.5114,-1.5114,-1.5113,-1.5068,-1.5067,-1.5066,0,0,0,0,0,0,0,0,0,0,0,0,0,-1.5242,-1.5241,-1.5192,-1.5192,-1.5191,-1.515,-1.5149,-1.5149,-1.5114,-1.5114,-1.5114,-1.5113,-1.5068,-1.5067,-1.5066,0,0,0,0,0,0,0,0,0,0,0,0,0,-1.5212,-1.5241,-1.5192,-1.5169,-1.5167,-1.515,-1.5149,-1.5148,-1.5115,-1.5114,-1.5114,-1.5113,-1.5069,-1.5067,-1.5066,-1.5068,0,0,-1.5062,-1.5061,0,0,0,0,0,0,0,0,-1.5214,-1.521,-1.5173,-1.5171,-1.5168,-1.5137,-1.515,-1.5121,-1.5115,-1.5134,-1.5113,-1.5113,-1.5091,-1.5088,-1.5081,-1.5066,-1.5064,-1.5062,-1.5061,-1.506,-1.506,0,0,0,0,0,0,0,-1.5216,-1.5212,-1.5175,-1.5173,-1.5169,-1.516,-1.5156,-1.5145,-1.5116,-1.5133,-1.513,-1.5125,-1.509,-1.5082,-1.508,-1.5063,-1.5062,-1.5061,-1.506,-1.5059,-1.5048,-1.5048,0,0,0,0,0,0,-1.5222,-1.5214,-1.5177,-1.5174,-1.519,-1.516,-1.5154,-1.5147,-1.5116,-1.5111,-1.5126,-1.5124,-1.5085,-1.5081,-1.5078,-1.5078,-1.506,-1.5059,-1.5058,-1.5047,-1.5048,-1.5048,0,0,0,0,0,0,-1.5223,-1.5219,-1.5178,-1.5193,-1.5187,-1.516,-1.5152,-1.5147,-1.514,-1.5111,-1.5106,-1.5124,-1.5084,-1.508,-1.5071,-1.5076,-1.5059,-1.5057,-1.5047,-1.5047,-1.5048,-1.5079,0,0,0,0,0,0,-1.5225,-1.522,-1.5221,-1.5194,-1.5187,-1.5173,-1.5152,-1.5146,-1.5138,-1.5135,-1.5108,-1.5103,-1.5084,-1.5073,-1.507,-1.5074,-1.5056,-1.5046,-1.5047,-1.5048,-1.5078,-1.5081,-1.5084,0,0,0,0,0,-1.5227,-1.5231,-1.5221,-1.5216,-1.5188,-1.5173,-1.5169,-1.5147,-1.5138,-1.5139,-1.512,-1.5104,-1.5076,-1.5072,-1.5068,-1.5072,-1.5046,-1.5047,-1.5048,-1.5076,-1.508,-1.5084,0,0,0,0,0,0,-1.5258,-1.5227,-1.5215,-1.5211,-1.5195,-1.5167,-1.5167,-1.5152,-1.5138,-1.5136,-1.5109,-1.5103,-1.5097,-1.5084,-1.508,-1.5073,-1.5059,-1.5059,-1.5082,-1.5085,-1.5088,-1.5092,-1.5055,0,0,0,0,0,-1.5265,-1.5256,-1.5229,-1.5228,-1.522,-1.5195,-1.5188,-1.5173,-1.5155,-1.5148,-1.5129,-1.5112,-1.5099,-1.5092,-1.5078,-1.5075,-1.5069,-1.5076,-1.5079,-1.5082,-1.5083,-1.508,-1.5083,-1.5052,-1.5052,-1.5052,0,0,-1.5278,-1.526,-1.5256,-1.5234,-1.5219,-1.5211,-1.519,-1.5181,-1.5174,-1.5146,-1.5137,-1.5123,-1.5102,-1.5096,-1.5092,-1.5084,-1.509,-1.5083,-1.5086,-1.5085,-1.5081,-1.5084,-1.5087,-1.5053,-1.5052,-1.5052,0,0,-1.5298,-1.5283,-1.5281,-1.5267,-1.5246,-1.5229,-1.5229,-1.5203,-1.5193,-1.5183,-1.5162,-1.5153,-1.5132,-1.5118,-1.5108,-1.5123,-1.5107,-1.5119,-1.5135,-1.5133,-1.5135,-1.5137,-1.5142,-1.5145,-1.512,-1.512,-1.512,0,-1.5317,-1.5303,-1.5281,-1.5274,-1.5264,-1.5239,-1.5236,-1.5224,-1.52,-1.5193,-1.5185,-1.5158,-1.5142,-1.5133,-1.5136,-1.5129,-1.5127,-1.5122,-1.5137,-1.5139,-1.514,-1.5145,-1.5147,-1.5121,-1.5121,-1.5121,-1.5121,0,-1.5327,-1.5319,-1.5319,-1.5297,-1.5287,-1.5282,-1.5258,-1.5252,-1.5237,-1.5221,-1.5211,-1.5192,-1.5174,-1.5171,-1.5156,-1.5159,-1.5155,-1.5142,-1.5127,-1.5145,-1.5149,-1.515,-1.5124,-1.5123,-1.5123,-1.5122,0,0,-1.5366,-1.5332,-1.5332,-1.5322,-1.5297,-1.5289,-1.5283,-1.5266,-1.5261,-1.5245,-1.5239,-1.5222,-1.521,-1.5199,-1.5182,-1.518,-1.5193,-1.5168,-1.5167,-1.5173,-1.5194,-1.5204,-1.5207,-1.5182,-1.5183,-1.5183,-1.5196,0,-1.5381,-1.5369,-1.5349,-1.5343,-1.5334,-1.531,-1.5305,-1.5289,-1.5274,-1.5264,-1.5247,-1.5235,-1.522,-1.5214,-1.521,-1.5192,-1.5197,-1.5191,-1.5176,-1.5176,-1.5182,-1.5208,-1.5218,-1.5232,-1.5198,-1.5198,-1.5198,0,-1.5398,-1.5384,-1.5378,-1.5354,-1.5349,-1.5345,-1.5328,-1.5319,-1.53,-1.5289,-1.5277,-1.5259,-1.5251,-1.5238,-1.5225,-1.5222,-1.5214,-1.5204,-1.5204,-1.5202,-1.5188,-1.5207,-1.5236,-1.5238,-1.52,-1.52,-1.52,0,-1.5426,-1.5406,-1.54,-1.5392,-1.5363,-1.5361,-1.5349,-1.5329,-1.5321,-1.5306,-1.53,-1.5284,-1.5275,-1.5263,-1.5241,-1.5234,-1.5231,-1.5216,-1.5222,-1.5222,-1.5222,-1.5222,-1.5251,-1.5218,-1.5218,-1.5218,-1.5218,0,-1.5446,-1.5443,-1.5412,-1.5408,-1.5404,-1.538,-1.5377,-1.5362,-1.5345,-1.5338,-1.5316,-1.5309,-1.5281,-1.5271,-1.5254,-1.5246,-1.5242,-1.5233,-1.5228,-1.5235,-1.5236,-1.5229,-1.5228,-1.5218,-1.5218,-1.5218,-1.5218,0,-1.5477,-1.5456,-1.5448,-1.5422,-1.5415,-1.5413,-1.5391,-1.5386,-1.537,-1.536,-1.5357,-1.5331,-1.5318,-1.5295,-1.5275,-1.5264,-1.5259,-1.5252,-1.5266,-1.5263,-1.527,-1.527,-1.5295,-1.5297,-1.5263,-1.5263,-1.5263,0,-1.5491,-1.5488,-1.5462,-1.5456,-1.5445,-1.5435,-1.5426,-1.5403,-1.5394,-1.5373,-1.537,-1.5355,-1.5342,-1.5322,-1.5302,-1.5286,-1.5278,-1.5288,-1.5275,-1.5282,-1.5278,-1.5278,-1.5278,-1.5291,-1.5291,-1.5292,-1.5292,0,-1.5517,-1.5507,-1.5496,-1.5481,-1.5471,-1.5458,-1.5444,-1.544,-1.5413,-1.5405,-1.5392,-1.5382,-1.5362,-1.5347,-1.5329,-1.5316,-1.5299,-1.5296,-1.5296,-1.5303,-1.5311,-1.5307,-1.5274,-1.5295,-1.5295,-1.5295,-1.5295,-1.5295,-1.554,-1.5536,-1.5518,-1.5506,-1.5493,-1.548,-1.5474,-1.5457,-1.5446,-1.5429,-1.5415,-1.5403,-1.5384,-1.5358,-1.5345,-1.5335,-1.5327,-1.5328,-1.5328,-1.5329,-1.5331,-1.5313,-1.5331,-1.5331,-1.5331,-1.5331,-1.5331,0,-1.5565,-1.5552,-1.5541,-1.5523,-1.5513,-1.5499,-1.5483,-1.5476,-1.5465,-1.5449,-1.5437,-1.5422,-1.5407,-1.5386,-1.537,-1.5366,-1.5358,-1.5362,-1.5362,-1.5359,-1.5339,-1.534,-1.5369,-1.5369,-1.5369,-1.5369,-1.5369,-1.5369,-1.5577,-1.557,-1.5558,-1.5545,-1.5531,-1.552,-1.5512,-1.55,-1.5487,-1.5471,-1.5459,-1.5446,-1.5427,-1.541,-1.5396,-1.539,-1.5385,-1.5392,-1.5383,-1.5364,-1.5361,-1.5358,-1.5359,-1.5391,-1.5391,-1.5405,-1.5405,-1.5405]},{"header":{"parameterUnit":"m.s-1","parameterCategory":1,"la1":30.2991,"la2":30.254,"lo1":-89.0895,"lo2":-89.0444,"dy":0.0017,"dx":0.0017,"nx":28,"ny":28,"refTime":"2025-09-05T21:00:00:Z","depth":0,"parameterNumber":3,"parameterNumberName":"V-component_of_WINDS"},"data":[0,0,0,0,0,0,0,0,0,0,0,0,0,0,0,0,0,0,0,0,0,0,0,0,0,0,0,0,0,0,0,0,0,0,0,0,0,0,0,0,0,0,0,0,0,0,0,0,0,0,0,0,0,0,0,0,0,0,-3.2215,-3.2215,0,-3.223,-3.223,-3.223,-3.2222,-3.2221,-3.2221,-3.2221,-3.2232,-3.2233,-3.2234,0,0,0,0,0,0,0,0,0,0,0,0,0,-3.2178,-3.2179,-3.2215,-3.2215,-3.2215,-3.223,-3.223,-3.223,-3.2222,-3.2221,-3.2221,-3.222,-3.2232,-3.2233,-3.2234,0,0,0,0,0,0,0,0,0,0,0,0,0,-3.2194,-3.2179,-3.2215,-3.2213,-3.2213,-3.223,-3.223,-3.223,-3.2222,-3.2221,-3.2221,-3.222,-3.2232,-3.2233,-3.2234,-3.2252,0,0,-3.2237,-3.2237,0,0,0,0,0,0,0,0,-3.2193,-3.2195,-3.2213,-3.2213,-3.2213,-3.2223,-3.2221,-3.2237,-3.2222,-3.2218,-3.2221,-3.222,-3.223,-3.2231,-3.2235,-3.2252,-3.2253,-3.2237,-3.2237,-3.2238,-3.2238,0,0,0,0,0,0,0,-3.2192,-3.2194,-3.2221,-3.2213,-3.2214,-3.2211,-3.2213,-3.2224,-3.2227,-3.2219,-3.2218,-3.222,-3.2229,-3.2234,-3.2235,-3.2253,-3.2237,-3.2238,-3.2238,-3.2239,-3.2289,-3.229,0,0,0,0,0,0,-3.2191,-3.2193,-3.222,-3.2221,-3.2201,-3.2212,-3.2214,-3.2221,-3.2227,-3.2227,-3.2221,-3.222,-3.2232,-3.2234,-3.2235,-3.2259,-3.2238,-3.2239,-3.2239,-3.2289,-3.229,-3.229,0,0,0,0,0,0,-3.219,-3.2194,-3.222,-3.2207,-3.221,-3.2213,-3.2221,-3.2221,-3.2226,-3.2229,-3.2229,-3.2225,-3.2232,-3.2234,-3.2249,-3.2259,-3.2239,-3.224,-3.2288,-3.2289,-3.229,-3.2306,0,0,0,0,0,0,-3.2189,-3.2193,-3.22,-3.2207,-3.2211,-3.2233,-3.2222,-3.2222,-3.2228,-3.2227,-3.2232,-3.2233,-3.2231,-3.2247,-3.225,-3.226,-3.2241,-3.2287,-3.2288,-3.229,-3.2304,-3.2307,-3.231,0,0,0,0,0,-3.2188,-3.2203,-3.2201,-3.2204,-3.222,-3.2234,-3.2236,-3.2235,-3.2229,-3.2236,-3.2238,-3.2232,-3.2258,-3.2249,-3.2252,-3.2263,-3.2286,-3.2288,-3.229,-3.2303,-3.2307,-3.231,0,0,0,0,0,0,-3.2195,-3.2203,-3.2201,-3.2219,-3.2226,-3.2233,-3.2242,-3.2239,-3.2247,-3.2245,-3.2243,-3.2245,-3.2261,-3.2263,-3.2253,-3.2282,-3.2271,-3.2273,-3.228,-3.2283,-3.2286,-3.2286,-3.2242,0,0,0,0,0,-3.2199,-3.221,-3.2217,-3.2231,-3.2235,-3.2238,-3.2244,-3.2243,-3.225,-3.2252,-3.2256,-3.2262,-3.2271,-3.2277,-3.2286,-3.2304,-3.2306,-3.2313,-3.2316,-3.2318,-3.232,-3.2333,-3.2337,-3.2296,-3.2296,-3.2296,0,0,-3.2206,-3.2212,-3.2219,-3.2233,-3.2239,-3.225,-3.224,-3.2252,-3.2261,-3.2254,-3.2269,-3.2272,-3.2278,-3.2296,-3.2304,-3.2298,-3.2332,-3.232,-3.2322,-3.2323,-3.2335,-3.2339,-3.2342,-3.2297,-3.2297,-3.2297,0,0,-3.2226,-3.2231,-3.2246,-3.2252,-3.2261,-3.2264,-3.2267,-3.2275,-3.2277,-3.2293,-3.2288,-3.2298,-3.2314,-3.232,-3.2324,-3.235,-3.2346,-3.2353,-3.2367,-3.2379,-3.2382,-3.2385,-3.2396,-3.24,-3.2355,-3.2355,-3.2355,0,-3.2234,-3.2252,-3.2253,-3.2267,-3.2274,-3.227,-3.2285,-3.229,-3.2301,-3.2306,-3.23,-3.2322,-3.2326,-3.2346,-3.2353,-3.2356,-3.2361,-3.2352,-3.2382,-3.2385,-3.2388,-3.2398,-3.2402,-3.2356,-3.2356,-3.2355,-3.2355,0,-3.2262,-3.2275,-3.2286,-3.2299,-3.2307,-3.2321,-3.2324,-3.2332,-3.2331,-3.2334,-3.2351,-3.2356,-3.2367,-3.2372,-3.237,-3.2392,-3.2389,-3.2382,-3.2371,-3.2392,-3.2402,-3.2406,-3.2357,-3.2357,-3.2356,-3.2356,0,0,-3.2285,-3.2302,-3.2305,-3.2313,-3.2324,-3.2334,-3.2348,-3.2361,-3.2369,-3.2376,-3.2389,-3.2404,-3.2399,-3.2405,-3.2404,-3.2414,-3.2437,-3.2407,-3.2407,-3.2414,-3.2464,-3.247,-3.2475,-3.2434,-3.2435,-3.2435,-3.2464,0,-3.2307,-3.2334,-3.2337,-3.2361,-3.2374,-3.2372,-3.2385,-3.2393,-3.2397,-3.2408,-3.2411,-3.2423,-3.2414,-3.2418,-3.2429,-3.2432,-3.2447,-3.243,-3.2446,-3.2447,-3.2446,-3.2479,-3.2485,-3.2512,-3.2468,-3.2469,-3.2469,0,-3.2336,-3.2348,-3.2375,-3.2387,-3.2392,-3.2404,-3.2417,-3.2428,-3.2438,-3.244,-3.2448,-3.2446,-3.2462,-3.245,-3.2471,-3.246,-3.2467,-3.247,-3.2471,-3.2473,-3.246,-3.2484,-3.252,-3.2525,-3.2475,-3.2474,-3.2474,0,-3.2353,-3.2375,-3.2395,-3.2401,-3.2415,-3.2424,-3.243,-3.2439,-3.2448,-3.2459,-3.2464,-3.2476,-3.2483,-3.2492,-3.2494,-3.2485,-3.2517,-3.2504,-3.2519,-3.2519,-3.2526,-3.2526,-3.2566,-3.2529,-3.2529,-3.2528,-3.2528,0,-3.2378,-3.2394,-3.2403,-3.2415,-3.2434,-3.2437,-3.2455,-3.2461,-3.247,-3.2483,-3.2481,-3.2493,-3.2494,-3.2507,-3.2508,-3.2527,-3.2529,-3.2532,-3.2532,-3.2533,-3.2533,-3.2538,-3.2536,-3.253,-3.2529,-3.2529,-3.2529,0,-3.2399,-3.2405,-3.2427,-3.244,-3.2444,-3.2457,-3.2468,-3.248,-3.2484,-3.2501,-3.2505,-3.2512,-3.2527,-3.253,-3.2546,-3.2547,-3.2571,-3.2568,-3.2568,-3.2568,-3.2584,-3.2583,-3.2629,-3.2636,-3.2593,-3.2593,-3.2594,0,-3.2415,-3.2428,-3.2444,-3.2454,-3.2461,-3.2476,-3.2486,-3.249,-3.2499,-3.2514,-3.2524,-3.2539,-3.2552,-3.2576,-3.2581,-3.2595,-3.2594,-3.2609,-3.2596,-3.2597,-3.2596,-3.2596,-3.2598,-3.2612,-3.2612,-3.2613,-3.2613,0,-3.2443,-3.2446,-3.2461,-3.2478,-3.249,-3.2503,-3.2515,-3.2523,-3.2528,-3.254,-3.2556,-3.2566,-3.2586,-3.2601,-3.2615,-3.2621,-3.2618,-3.2618,-3.2622,-3.2623,-3.2623,-3.2626,-3.2577,-3.2616,-3.2616,-3.2616,-3.2616,-3.2615,-3.2463,-3.2476,-3.249,-3.2507,-3.2518,-3.253,-3.2543,-3.255,-3.2565,-3.2582,-3.2583,-3.2602,-3.2613,-3.2633,-3.264,-3.2654,-3.2649,-3.2655,-3.2657,-3.2659,-3.2661,-3.2621,-3.2656,-3.2656,-3.2656,-3.2656,-3.2656,0,-3.2492,-3.2503,-3.2519,-3.2537,-3.2551,-3.255,-3.2564,-3.2576,-3.2593,-3.2605,-3.2618,-3.2639,-3.2654,-3.2663,-3.2678,-3.2689,-3.2688,-3.2693,-3.2693,-3.2694,-3.2663,-3.2659,-3.2693,-3.2693,-3.2693,-3.2693,-3.2693,-3.2693,-3.251,-3.2532,-3.2538,-3.2566,-3.2576,-3.2596,-3.2605,-3.2616,-3.2626,-3.265,-3.2664,-3.267,-3.2681,-3.2698,-3.2713,-3.2715,-3.2722,-3.2727,-3.2729,-3.27,-3.2696,-3.2693,-3.2688,-3.2728,-3.2728,-3.2759,-3.2759,-3.2759]}]]